Weather History for KHSE - March, 2014

Change the Weather History Date:

Tuesday, March 4, 2014

  Actual Average Record
Temperature  
Mean Temperature 38 °F 49 °F  
Max Temperature 42 °F 56 °F 72 °F (1976)
Min Temperature 34 °F 42 °F 24 °F (2009)
Degree Days  
Heating Degree Days 27 16  
Month to date heating degree days 79 65  
Since 1 July heating degree days 1912 1989  
Cooling Degree Days 0 0  
Month to date cooling degree days 0 0  
Year to date cooling degree days 0 0  
Moisture  
Dew Point 36 °F    
Average Humidity 91    
Maximum Humidity 100    
Minimum Humidity 82    
Precipitation  
Precipitation 0.14 in 0.14 in 1.86 in (1973)
Month to date precipitation 0.19 0.59  
Year to date precipitation 10.28 9.85  
Snow  
Snow 0.00 in - - ()
Month to date snowfall 0.0  
Since 1 July snowfall 5.7  
Snow Depth 0.00 in    
Sea Level Pressure  
Sea Level Pressure 30.16 in    
Wind  
Wind Speed 13 mph (North)    
Max Wind Speed 21 mph    
Max Gust Speed 41 mph    
Visibility 8 miles    
Events Rain    
T = Trace of Precipitation, MM = Missing Value Source: NWS Daily Summary

Daily Weather History Graph

Daily Weather History Graph

Search for Another Location

Airport or City:

Trip Planner

Search our weather history database for the weather conditions in past years. The results will help you decide how hot, cold, wet, or windy it might be!

Date:

Astronomy

Mar. 04, 2014 Rise Set
Actual Time 6:28 AM EST 6:00 PM EST
Civil Twilight 6:02 AM EST 6:26 PM EST
Nautical Twilight 5:33 AM EST 6:55 PM EST
Astronomical Twilight 5:04 AM EST 7:24 PM EST
Moon 8:21 AM EST (3/4) 9:55 PM EST (3/4)
Length of Visible Light 12h 23m
Length of Day
11h 32m
Waxing Crescent, 14% of the Moon is Illuminated
Mar 4
Waxing Crescent
Mar 8
First Quarter
Mar 16
Full
Mar 23
Last Quarter
Mar 30
New

Hourly Weather History & Observations

Time (EST) Temp. Windchill Dew Point Humidity Pressure Visibility Wind Dir Wind Speed Gust Speed Precip Events Conditions
12:51 AM 34.0 °F 22.7 °F 30.9 °F 89% 30.15 in 10.0 mi NNE 19.6 mph 34.5 mph N/A   Overcast
1:51 AM 35.1 °F 24.5 °F 30.9 °F 85% 30.13 in 10.0 mi NNE 18.4 mph 34.5 mph N/A   Overcast
2:51 AM 35.1 °F 25.5 °F 32.0 °F 89% 30.14 in 10.0 mi NNE 15.0 mph 27.6 mph N/A   Overcast
3:51 AM 35.1 °F 25.2 °F 32.0 °F 89% 30.15 in 10.0 mi NNE 16.1 mph 28.8 mph N/A   Overcast
4:51 AM 36.0 °F 27.1 °F 32.0 °F 86% 30.16 in 10.0 mi NNE 13.8 mph 31.1 mph N/A   Overcast
5:51 AM 37.0 °F 28.1 °F 33.1 °F 86% 30.18 in 10.0 mi NNE 15.0 mph 27.6 mph N/A   Overcast
6:51 AM 37.0 °F 28.5 °F 33.1 °F 86% 30.18 in 10.0 mi NNE 13.8 mph 27.6 mph N/A   Overcast
7:51 AM 37.9 °F 28.9 °F 33.1 °F 83% 30.20 in 10.0 mi NNE 16.1 mph 27.6 mph N/A   Overcast
8:51 AM 37.9 °F 29.6 °F 33.1 °F 83% 30.20 in 10.0 mi NNE 13.8 mph 29.9 mph N/A   Overcast
9:51 AM 39.9 °F 32.1 °F 35.1 °F 83% 30.19 in 10.0 mi NNE 13.8 mph 28.8 mph N/A   Overcast
10:51 AM 39.9 °F 31.4 °F 36.0 °F 86% 30.19 in 10.0 mi NNE 16.1 mph 26.5 mph N/A   Overcast
11:33 AM 41.0 °F 33.1 °F 36.0 °F 82% 30.18 in 10.0 mi NNE 15.0 mph 28.8 mph N/A   Overcast
11:51 AM 42.1 °F 34.9 °F 37.0 °F 82% 30.17 in 10.0 mi NNE 13.8 mph 26.5 mph N/A   Overcast
12:00 PM 41.0 °F 33.5 °F 37.0 °F 86% 30.16 in 10.0 mi NNE 13.8 mph 24.2 mph N/A   Overcast
12:51 PM 39.9 °F 31.4 °F 37.0 °F 89% 30.15 in 9.0 mi North 16.1 mph 25.3 mph N/A   Overcast
1:07 PM 39.9 °F 33.4 °F 37.0 °F 89% 30.15 in 10.0 mi North 10.4 mph 24.2 mph N/A   Overcast
1:35 PM 39.9 °F 32.9 °F 37.0 °F 89% 30.14 in 5.0 mi North 11.5 mph 23.0 mph 0.00 in Rain Light Rain
1:51 PM 39.0 °F 32.3 °F 37.0 °F 93% 30.15 in 4.0 mi North 10.4 mph 29.9 mph 0.01 in Rain Light Rain
2:49 PM 37.4 °F 31.4 °F 37.4 °F 100% 30.15 in 2.0 mi North 8.1 mph 23.0 mph 0.04 in Rain Light Rain
2:51 PM 37.9 °F 30.9 °F 37.9 °F 100% 30.15 in 2.0 mi North 10.4 mph 23.0 mph 0.04 in Rain Light Rain
3:10 PM 37.9 °F 30.9 °F 37.0 °F 97% 30.16 in 3.0 mi North 10.4 mph 21.9 mph 0.01 in Rain Light Rain
3:51 PM 37.9 °F 30.5 °F 37.0 °F 97% 30.14 in 3.0 mi North 11.5 mph 25.3 mph 0.04 in Rain Light Rain
4:29 PM 37.9 °F 32.1 °F 37.0 °F 97% 30.15 in 1.8 mi North 8.1 mph 20.7 mph 0.01 in Rain Light Rain
4:47 PM 37.4 °F 29.8 °F 37.4 °F 100% 30.14 in 2.5 mi North 11.5 mph 21.9 mph 0.03 in Rain Light Rain
4:51 PM 37.9 °F 30.9 °F 37.0 °F 97% 30.14 in 3.0 mi North 10.4 mph 21.9 mph 0.03 in Rain Light Rain
5:51 PM 37.9 °F 30.9 °F 37.0 °F 97% 30.15 in 9.0 mi North 10.4 mph 20.7 mph 0.01 in   Overcast
6:51 PM 37.9 °F 31.5 °F 37.9 °F 100% 30.15 in 10.0 mi North 9.2 mph 23.0 mph 0.01 in   Overcast
7:51 PM 37.9 °F 30.5 °F 37.0 °F 97% 30.16 in 10.0 mi North 11.5 mph 25.3 mph N/A   Overcast
8:51 PM 37.9 °F 30.5 °F 37.9 °F 100% 30.16 in 10.0 mi North 11.5 mph 23.0 mph N/A   Overcast
9:51 PM 39.0 °F 31.8 °F 37.9 °F 96% 30.14 in 10.0 mi North 11.5 mph 24.2 mph N/A   Overcast
10:51 PM 39.0 °F 31.8 °F 37.9 °F 96% 30.13 in 10.0 mi North 11.5 mph 23.0 mph N/A   Overcast
11:51 PM 37.9 °F 32.1 °F 37.0 °F 97% 30.12 in 10.0 mi North 8.1 mph - N/A   Overcast